This is the latest recevied weather packets stored in our database for station/object OK1FET-5. If no packets are shown the sender has not sent any weather packets the latest 10 day(s).
| Time | Temp. | Humidity | Pressure | Rain* | Wind** | Luminosity | Snow |
|---|---|---|---|---|---|---|---|
| 1777876501 | 18.33° C | 40% | 1014.9 hPa | - | - | - | - |
| 1777876206 | 18.33° C | 39% | 1014.9 hPa | - | - | - | - |
| 1777875911 | 18.89° C | 38% | 1014.9 hPa | - | - | - | - |
| 1777875617 | 18.33° C | 39% | 1015 hPa | - | - | - | - |
| 1777875322 | 17.22° C | 41% | 1014.8 hPa | - | - | - | - |
| 1777875027 | 16.11° C | 42% | 1014.7 hPa | - | - | - | - |
| 1777874733 | 16.11° C | 42% | 1014.8 hPa | - | - | - | - |
| 1777874438 | 16.11° C | 43% | 1014.8 hPa | - | - | - | - |
| 1777874145 | 15° C | 46% | 1014.9 hPa | - | - | - | - |
| 1777873850 | 14.44° C | 43% | 1014.8 hPa | - | - | - | - |
| 1777873555 | 14.44° C | 42% | 1014.6 hPa | - | - | - | - |
| 1777873260 | 14.44° C | 42% | 1014.6 hPa | - | - | - | - |
| 1777872966 | 15° C | 41% | 1014.5 hPa | - | - | - | - |
| 1777872672 | 15° C | 42% | 1014.4 hPa | - | - | - | - |
| 1777872377 | 14.44° C | 43% | 1014.4 hPa | - | - | - | - |
| 1777872083 | 13.33° C | 43% | 1014.4 hPa | - | - | - | - |
| 1777871788 | 12.78° C | 44% | 1014.5 hPa | - | - | - | - |
| 1777871494 | 12.78° C | 45% | 1014.6 hPa | - | - | - | - |
| 1777871200 | 12.78° C | 45% | 1014.5 hPa | - | - | - | - |
| 1777870905 | 12.78° C | 45% | 1014.5 hPa | - | - | - | - |
| 1777870612 | 12.78° C | 45% | 1014.5 hPa | - | - | - | - |
| 1777870317 | 12.78° C | 45% | 1014.4 hPa | - | - | - | - |
| 1777870022 | 12.78° C | 45% | 1014.2 hPa | - | - | - | - |
| 1777869728 | 13.33° C | 45% | 1014.1 hPa | - | - | - | - |
| 1777869434 | 13.33° C | 44% | 1014.1 hPa | - | - | - | - |
* Rain since midnight (hover to see other rain measurements)
** Current wind speed in m/s (hover to see current wind gust speed)